Location: Invercargill
(46.4000°S, 168.3500°E)
Time: 05:38:00
(UTC+13:00)

Cosmos 1340 Rocket - Pass Details

Date: 24 January 2019
Orbit: 529 x 560 km, 81.2° (Epoch: 19 February)

Event Time Altitude Azimuth Distance (km) Brightness Sun altitude
Exits shadow 23:51:21 39° 68° (ENE) 830 3.3 -18.4°
Maximum altitude 23:51:46 40° 86° (E) 811 3.4 -18.4°
Drops below altitude 10° 23:55:33 10° 155° (SSE) 1,834 5.9 -18.7°
Sets 23:57:50 0° 162° (SSE) 2,741 7.0 -18.9°
